Regional Weather Roundup
Issued by NWS

Home | Current Version | Previous Version | Text Only | Print | Product List | Glossary On
Versions: 1 2 3 4 5 6 7 8 9 10 11 12 13 14 15 16 17 18 19 20 21 22 23 24 25 26 27 28 29 30 31 32 33 34 35 36 37 38 39 40 41 42 43 44 45 46 47 48 49 50
000
ASUS43 KMPX 221501
RWRMN
WEATHER ROUNDUP FOR MINNESOTA
NATIONAL WEATHER SERVICE TWIN CITIES/CHANHASSEN MN
1000 AM CDT MON SEP 22 2014


NOTE: "FAIR" INDICATES FEW OR NO CLOUDS BELOW 12,000 FEET WITH NO
SIGNIFICANT WEATHER AND/OR OBSTRUCTIONS TO VISIBILITY. N/A MEANS
CURRENT SKY AND/OR WEATHER CONDITIONS ARE NOT AVAILABLE.

MNZ060>063-068>070-221600-
   Twin Cities Metro

CITY           SKY/WX    TMP DP  RH WIND       PRES   REMARKS
TWIN CITIES    SUNNY     58  49  72 W6        30.28S
ST PAUL        SUNNY     58  51  78 W7        30.28S
CRYSTAL        SUNNY     60  50  69 W7        30.26S
BLAINE         SUNNY     57  54  88 W6        30.27R
LAKEVILLE      SUNNY     57  52  82 W7        30.28S
EDEN PRAIRIE   SUNNY     56  51  84 SW5       30.27S
SOUTH ST PAUL  SUNNY     59  50  71 W8        30.28R
LAKE ELMO      FAIR      55  52  88 W5        30.28S
$$
MNZ001>005-007-008-013>017-022>024-027-028-221600-
   Northwest Minnesota

CITY           SKY/WX    TMP DP  RH WIND       PRES   REMARKS
BEMIDJI        SUNNY     56  50  78 W8        30.18S
HALLOCK        SUNNY     57  50  77 S7        30.11S
ROSEAU         SUNNY     61  52  72 SW9       30.12S
WARROAD        SUNNY     59  52  77 SW10      30.12S
THIEF RVR FALL MOSUNNY   55  48  76 SW7       30.16S
CROOKSTON      SUNNY     55  48  76 S7        30.16S
FOSSTON        SUNNY     57  50  77 S9        30.19R
DETROIT LAKES  SUNNY     59  50  72 SW5       30.21S
MOORHEAD       SUNNY     55  54  94 SW7       30.20S
PARK RAPIDS    SUNNY     59  50  72 W8        30.20S
MAHNOMEN       FAIR      54  49  82 SW9       30.19S
$$
MNZ006-009>011-018-025>026-221600-
   North Central Minnesota

CITY           SKY/WX    TMP DP  RH WIND       PRES   REMARKS
BAUDETTE       SUNNY     59  50  72 SW7       30.12S
FLAG ISLAND    SUNNY     57  48  72 SW13      30.07S
INTL FALLS     SUNNY     55  51  86 W7        30.13S
WASKISH        SUNNY     57  55  94 CALM      30.16R
BIG FORK       SUNNY     55  54  94 SW6       30.17S
LONGVILLE      SUNNY     57  52  82 SW7       30.20S
GRAND RAPIDS   SUNNY     55  48  76 W7        30.20R
CRANE LAKE     SUNNY     55  48  76 SW3       30.16R
ORR            SUNNY     55  48  76 W5        30.14S
COOK           SUNNY     55  50  82 W7        30.17S
WALKER         FAIR      57  48  72 W7        30.19S
$$
MNZ012-019>021-037-221600-
   Northeast Minnesota

CITY           SKY/WX    TMP DP  RH WIND       PRES   REMARKS
DULUTH         SUNNY     59  47  64 W9        30.20R
ELY            SUNNY     55  46  71 SW8       30.16R
HIBBING        SUNNY     57  50  77 W7        30.19S
EVELETH        SUNNY     52  52 100 SW6       30.19S
DULUTH HARBOR  SUNNY     55  50  82 SW10      30.21S
TWO HARBORS    SUNNY     57  46  67 W9        30.16F
SILVER BAY     SUNNY     57  50  77 W8        30.15S
GRAND MARAIS     N/A     56  50  80 W6        30.13S
G MARAIS ARPRT SUNNY     55  45  67 W8        30.15R
$$
MNZ029>031-032-039>041-046>048-054>057-064-221600-
   West Central Minnesota

CITY           SKY/WX    TMP DP  RH WIND       PRES   REMARKS
FERGUS FALLS   SUNNY     57  48  72 S6        30.23S
WHEATON        SUNNY     57  50  77 SW6       30.23F
MORRIS         SUNNY     61  54  77 SW6       30.23S
ALEXANDRIA     SUNNY     58  51  78 SW8       30.25S
ELBOW LAKE     FAIR      56  50  80 S5        30.22S
WADENA         SUNNY     57  50  77 W7        30.21S
GLENWOOD       SUNNY     57  52  82 SW9       30.25S
APPLETON       SUNNY     57  52  82 SW3       30.24S
BENSON         SUNNY     57  52  82 W5        30.25S
ORTONVILLE     SUNNY     57  52  82 CALM      30.23S
MADISON        SUNNY     63  54  72 SW9       30.24S
WILLMAR        FAIR      57  50  77 SW8       30.27S
$$
MNZ033>034-036-042>043-049>051-058-059-221600-
   Central Minnesota

CITY           SKY/WX    TMP DP  RH WIND       PRES   REMARKS
ST CLOUD       SUNNY     60  50  69 SW9       30.25S
SAUK CENTRE    FAIR      58  51  76 SW5       30.25S
PAYNESVILLE    SUNNY     56  50  80 S10       30.26S
AITKIN         SUNNY     61  52  72 SW3       30.21R
PINE RIVER     SUNNY     57  50  77 W3        30.24S
BRAINERD       SUNNY     55  49  80 W7        30.24R
STAPLES        SUNNY     57  48  72 W7        30.22S
LONG PRAIRIE   FAIR      55  50  82 SW5       30.24S
LITTLE FALLS   SUNNY     52  52 100 CALM      30.24S
LITCHFIELD     SUNNY     61  54  77 W3        30.27S
BUFFALO        SUNNY     57  49  75 SW5       30.28R
MAPLE LAKE     SUNNY     58  52  80 SW5       30.27S
$$
MNZ037-044-045-052-053-221600-
   East Central Minnesota

CITY           SKY/WX    TMP DP  RH WIND       PRES   REMARKS
PRINCETON      SUNNY     55  52  88 SW7       30.26S
MORA           SUNNY     55  50  82 W5        30.26R
CAMBRIDGE      SUNNY     59  48  67 W3        30.24S
RUSH CITY      MOSUNNY   55  52  91 SW5       30.26R
MOOSE LAKE     SUNNY     55  50  82 W7        30.21S
HINCKLEY       FAIR      55  50  82 W5        30.25R
CLOQUET        SUNNY     57  48  72 W8        30.21R
MCGREGOR       SUNNY     54  52  94 SW6       30.22S
$$
MNZ071>073-080-081-089-090-097-098-221600-
   Southwest Minnesota

CITY           SKY/WX    TMP DP  RH WIND       PRES   REMARKS
MONTEVIDEO     SUNNY     61  54  77 W6        30.26S
GRANITE FALLS  SUNNY     58  51  76 SW6       30.28S
CANBY          SUNNY     62  50  65 SW9       30.26S
MARSHALL       SUNNY     63  46  55 SW15      30.26S
REDWOOD FALLS  SUNNY     59  51  75 SW8       30.27S
OLIVIA         SUNNY     57  50  77 SW6       30.26S
PIPESTONE      SUNNY     61  48  63 SW9       30.27F
WINDOM         SUNNY     59  50  72 SW8       30.30R
WORTHINGTON    SUNNY     61  48  63 SW8       30.30S
JACKSON        SUNNY     59  50  72 SW8       30.31R
TRACY          SUNNY     61  51  69 SW12      30.28S
SLAYTON        SUNNY     60  50  71 CALM      30.29F
$$
MNZ065>067-074>077-082>085-091>093-221600-
   South Central Minnesota

CITY           SKY/WX    TMP DP  RH WIND       PRES   REMARKS
MANKATO        SUNNY     55  48  76 W6        30.29S
NEW ULM        SUNNY     57  54  88 SW5       30.28S
ST JAMES       SUNNY     61  52  72 SW7       30.30S
FAIRMONT       SUNNY     61  48  63 SW7       30.30S
GLENCOE        SUNNY     59  50  71 SW6       30.27S
FARIBAULT      SUNNY     61  48  63 W7        30.29S
OWATONNA       SUNNY     55  54  94 W5        30.29S
WASECA         SUNNY     52  48  87 SW6       30.31S
ALBERT LEA     SUNNY     57  52  82 W6        30.30S
$$
MNZ078>079-086>088-094>096-221600-
   Southeast Minnesota

CITY           SKY/WX    TMP DP  RH WIND       PRES   REMARKS
ROCHESTER      SUNNY     57  52  83 W9        30.30R
RED WING       MOSUNNY   55  54  94 W3        30.27R
STANTON        SUNNY     57  51  80 W7        30.28R
DODGE CENTER   SUNNY     55  54  94 W9        30.29S
WINONA         SUNNY     54  50  87 CALM      30.28S
AUSTIN         SUNNY     55  55 100 W10       30.30R
PRESTON        SUNNY     59  53  82 SW8       30.30R
$$
ABBREVIATIONS USED IN REMARKS
   TC - TEMPERATURES IN CELSIUS
  WCI - WIND CHILL INDEX
   HX - HEAT INDEX
  VSB - VISIBILITY
$$


USA.gov is the U.S. government's official web portal to all federal, state and local government web resources and services.